QTR25J OPKC-OTHH

Flight info

Callsign QTR25J
Flight time 2h 8m
Altitude 40000
Route MELOM A454 VUSET N571 MENSA DCT EGTAG Q576 RORON/N0481F340 M430 TOSNA
Aircraft A35K/H-SDE2E3GHIJ3J4J5LM1ORWXY/LB1D1

Departure

Time 2026-05-07 09:30
Airport Jinnah International Airport (OPKC)

Arrival

Time 2026-05-07 11:39
Airport Hamad International Airport (OTHH)
Time Latitude Longitude Altitude Speed Heading
2026-05-07 08:58 24.90247 67.16577 107 ft 0 kts 164°
2026-05-07 09:16 24.90270 67.16570 107 ft 4 kts 164°
2026-05-07 09:16 24.90296 67.16562 107 ft 3 kts 165°
2026-05-07 09:17 24.90316 67.16553 106 ft 4 kts 124°
2026-05-07 09:17 24.90320 67.16528 107 ft 4 kts 76°
2026-05-07 09:17 24.90315 67.16507 107 ft 0 kts 74°
2026-05-07 09:18 24.90315 67.16508 107 ft 0 kts 74°
2026-05-07 09:26 24.90325 67.16548 106 ft 11 kts 75°
2026-05-07 09:27 24.90349 67.16645 105 ft 15 kts 74°
2026-05-07 09:27 24.90396 67.16693 106 ft 15 kts 14°
2026-05-07 09:27 24.90517 67.16858 106 ft 18 kts 75°
2026-05-07 09:28 24.90554 67.17009 106 ft 22 kts 73°
2026-05-07 09:28 24.90600 67.17180 105 ft 25 kts 73°
2026-05-07 09:28 24.90652 67.17370 106 ft 27 kts 63°
2026-05-07 09:28 24.90791 67.17489 108 ft 22 kts 18°
2026-05-07 09:29 24.90858 67.17449 110 ft 8 kts 280°
2026-05-07 09:29 24.90848 67.17381 111 ft 12 kts 258°
2026-05-07 09:29 24.90761 67.17034 113 ft 86 kts 255°
2026-05-07 09:29 24.90538 67.16146 109 ft 152 kts 253°
2026-05-07 09:30 24.90193 67.14859 406 ft 187 kts 257°
2026-05-07 09:30 24.89684 67.13551 1300 ft 186 kts 231°
2026-05-07 09:30 24.88499 67.12806 1930 ft 215 kts 194°
2026-05-07 09:30 24.86955 67.12638 2579 ft 232 kts 188°
2026-05-07 09:31 24.85302 67.12416 3098 ft 245 kts 198°
2026-05-07 09:31 24.83773 67.11576 3661 ft 251 kts 220°
2026-05-07 09:31 24.82384 67.10332 4278 ft 263 kts 224°
2026-05-07 09:31 24.80988 67.08987 5017 ft 269 kts 225°
2026-05-07 09:32 24.79574 67.07616 5772 ft 274 kts 224°
2026-05-07 09:32 24.78124 67.06203 6452 ft 282 kts 224°
2026-05-07 09:32 24.76646 67.04771 7241 ft 285 kts 223°
2026-05-07 09:32 24.75225 67.03284 8024 ft 287 kts 230°
2026-05-07 09:33 24.74180 67.01431 8817 ft 285 kts 252°
2026-05-07 09:33 24.73802 66.99303 9667 ft 285 kts 272°
2026-05-07 09:33 24.74128 66.97153 10258 ft 293 kts 291°
2026-05-07 09:33 24.75164 66.95139 10557 ft 314 kts 308°
2026-05-07 09:34 24.76578 66.93200 10851 ft 335 kts 310°
2026-05-07 09:34 24.78082 66.91192 11483 ft 341 kts 311°
2026-05-07 09:34 24.79578 66.89169 12390 ft 342 kts 311°
2026-05-07 09:34 24.81088 66.87106 13088 ft 349 kts 311°
2026-05-07 09:35 24.82616 66.85007 13858 ft 353 kts 311°
2026-05-07 09:35 24.84158 66.82881 14542 ft 358 kts 311°
2026-05-07 09:35 24.85719 66.80724 15221 ft 362 kts 310°
2026-05-07 09:35 24.87296 66.78542 15915 ft 366 kts 310°
2026-05-07 09:36 24.88352 66.77079 16330 ft 370 kts 310°
2026-05-07 09:36 24.90512 66.74083 17238 ft 376 kts 309°
2026-05-07 09:36 24.92150 66.71811 17911 ft 382 kts 309°
2026-05-07 09:36 24.93809 66.69508 18546 ft 385 kts 309°
2026-05-07 09:37 24.95467 66.67203 19330 ft 383 kts 310°
2026-05-07 09:37 24.97125 66.64898 20013 ft 385 kts 310°
2026-05-07 09:37 24.98796 66.62575 20661 ft 388 kts 310°
2026-05-07 09:37 25.00461 66.60218 21343 ft 391 kts 308°
2026-05-07 09:38 25.01852 66.57633 22034 ft 395 kts 297°
2026-05-07 09:38 25.02714 66.54731 22641 ft 404 kts 284°
2026-05-07 09:38 25.02928 66.51612 23201 ft 413 kts 274°
2026-05-07 09:38 25.02792 66.48425 23698 ft 419 kts 269°
2026-05-07 09:39 25.02476 66.45220 24220 ft 422 kts 267°
2026-05-07 09:39 25.02082 66.42003 24784 ft 424 kts 266°
2026-05-07 09:39 25.01672 66.38777 25393 ft 425 kts 266°
2026-05-07 09:39 25.01275 66.35541 26008 ft 427 kts 267°
2026-05-07 09:40 25.00897 66.32294 26617 ft 428 kts 267°
2026-05-07 09:40 25.00536 66.29026 27232 ft 430 kts 267°
2026-05-07 09:40 25.00189 66.25795 27834 ft 432 kts 267°
2026-05-07 09:40 24.99843 66.22498 28427 ft 434 kts 267°
2026-05-07 09:41 24.99496 66.19189 29006 ft 436 kts 267°
2026-05-07 09:41 24.99146 66.15859 29594 ft 438 kts 267°
2026-05-07 09:41 24.98794 66.12517 30096 ft 441 kts 267°
2026-05-07 09:41 24.98438 66.09153 30535 ft 443 kts 267°
2026-05-07 09:42 24.98078 66.05766 30974 ft 446 kts 267°
2026-05-07 09:42 24.97714 66.02358 31410 ft 449 kts 266°
2026-05-07 09:42 24.97347 65.98936 31844 ft 451 kts 266°
2026-05-07 09:42 24.96977 65.95489 32262 ft 454 kts 266°
2026-05-07 09:43 24.96605 65.92028 32655 ft 456 kts 266°
2026-05-07 09:43 24.96230 65.88550 33021 ft 459 kts 266°
2026-05-07 09:43 24.95852 65.85049 33402 ft 461 kts 266°
2026-05-07 09:43 24.95471 65.81532 33768 ft 463 kts 266°
2026-05-07 09:44 24.95087 65.77999 34081 ft 466 kts 266°
2026-05-07 09:44 24.94701 65.74452 34385 ft 467 kts 265°
2026-05-07 09:44 24.94314 65.70901 34821 ft 465 kts 265°
2026-05-07 09:44 24.93927 65.67370 35292 ft 463 kts 265°
2026-05-07 09:45 24.93541 65.63854 35723 ft 461 kts 265°
2026-05-07 09:45 24.93156 65.60350 36109 ft 461 kts 265°
2026-05-07 09:45 24.92771 65.56843 36440 ft 461 kts 265°
2026-05-07 09:45 24.92385 65.53338 36801 ft 461 kts 265°
2026-05-07 09:46 24.91999 65.49841 37196 ft 459 kts 265°
2026-05-07 09:46 24.91613 65.46355 37608 ft 458 kts 265°
2026-05-07 09:46 24.91233 65.42928 37985 ft 456 kts 265°
2026-05-07 09:46 24.90848 65.39467 38360 ft 455 kts 265°
2026-05-07 09:47 24.90463 65.36011 38663 ft 454 kts 265°
2026-05-07 09:47 24.90078 65.32559 38909 ft 454 kts 265°
2026-05-07 09:47 24.89692 65.29107 39140 ft 454 kts 264°
2026-05-07 09:47 24.89305 65.25646 39315 ft 456 kts 264°
2026-05-07 09:48 24.88916 65.22182 39547 ft 456 kts 264°
2026-05-07 09:48 24.88526 65.18721 39727 ft 456 kts 264°
2026-05-07 09:48 24.88135 65.15255 39762 ft 455 kts 264°
2026-05-07 09:49 24.87353 65.08350 39756 ft 455 kts 264°
2026-05-07 09:49 24.86567 65.01436 39757 ft 455 kts 264°
2026-05-07 09:50 24.85779 64.94522 39760 ft 455 kts 264°
2026-05-07 09:50 24.84986 64.87601 39761 ft 456 kts 264°
2026-05-07 09:51 24.84189 64.80671 39761 ft 456 kts 264°
2026-05-07 09:51 24.83388 64.73741 39759 ft 456 kts 264°
2026-05-07 09:52 24.82585 64.66817 39759 ft 456 kts 264°
2026-05-07 09:52 24.81783 64.59935 39761 ft 456 kts 264°
2026-05-07 09:53 24.80973 64.53011 39757 ft 456 kts 264°
2026-05-07 09:53 24.80160 64.46088 39758 ft 456 kts 264°
2026-05-07 09:54 24.79344 64.39164 39756 ft 456 kts 264°
2026-05-07 09:54 24.78525 64.32240 39755 ft 457 kts 264°
2026-05-07 09:55 24.77701 64.25308 39757 ft 457 kts 264°
2026-05-07 09:55 24.76874 64.18379 39756 ft 457 kts 264°
2026-05-07 09:56 24.76044 64.11450 39756 ft 457 kts 264°
2026-05-07 09:56 24.75210 64.04523 39745 ft 457 kts 263°
2026-05-07 09:57 24.74373 63.97585 39751 ft 458 kts 263°
2026-05-07 09:57 24.73532 63.90646 39759 ft 458 kts 263°
2026-05-07 09:58 24.72687 63.83709 39751 ft 458 kts 263°
2026-05-07 09:58 24.71839 63.76768 39749 ft 458 kts 263°
2026-05-07 09:59 24.70994 63.69875 39756 ft 458 kts 263°
2026-05-07 09:59 24.70140 63.62943 39755 ft 457 kts 263°
2026-05-07 10:00 24.69284 63.56025 39756 ft 456 kts 263°
2026-05-07 10:00 24.68428 63.49122 39761 ft 456 kts 263°
2026-05-07 10:01 24.67568 63.42222 39755 ft 456 kts 263°
2026-05-07 10:01 24.66713 63.35380 39757 ft 456 kts 263°
2026-05-07 10:02 24.65846 63.28471 39758 ft 457 kts 263°
2026-05-07 10:02 24.64974 63.21554 39758 ft 457 kts 263°
2026-05-07 10:03 24.64100 63.14642 39755 ft 457 kts 263°
2026-05-07 10:03 24.63223 63.07726 39757 ft 457 kts 263°
2026-05-07 10:04 24.62390 63.00802 39760 ft 457 kts 266°
2026-05-07 10:04 24.62428 62.93833 39756 ft 456 kts 273°
2026-05-07 10:05 24.62909 62.86881 39755 ft 456 kts 275°
2026-05-07 10:05 24.63472 62.79930 39753 ft 456 kts 275°
2026-05-07 10:06 24.64010 62.72981 39752 ft 456 kts 275°
2026-05-07 10:06 24.64523 62.66027 39754 ft 456 kts 274°
2026-05-07 10:07 24.65024 62.59073 39755 ft 456 kts 274°
2026-05-07 10:07 24.65522 62.52122 39757 ft 456 kts 274°
2026-05-07 10:08 24.66020 62.45159 39756 ft 457 kts 274°
2026-05-07 10:08 24.66513 62.38203 39758 ft 457 kts 274°
2026-05-07 10:09 24.67001 62.31287 39757 ft 457 kts 274°
2026-05-07 10:09 24.67488 62.24329 39768 ft 457 kts 274°
2026-05-07 10:10 24.67973 62.17365 39759 ft 457 kts 274°
2026-05-07 10:10 24.68455 62.10396 39757 ft 457 kts 274°
2026-05-07 10:11 24.68932 62.03435 39758 ft 456 kts 274°
2026-05-07 10:11 24.69406 61.96489 39759 ft 455 kts 274°
2026-05-07 10:12 24.69876 61.89549 39755 ft 456 kts 274°
2026-05-07 10:12 24.70344 61.82598 39755 ft 456 kts 274°
2026-05-07 10:13 24.70808 61.75635 39756 ft 456 kts 274°
2026-05-07 10:13 24.71270 61.68680 39755 ft 456 kts 274°
2026-05-07 10:14 24.71728 61.61720 39754 ft 456 kts 274°
2026-05-07 10:14 24.72183 61.54763 39756 ft 456 kts 274°
2026-05-07 10:15 24.72635 61.47804 39750 ft 456 kts 274°
2026-05-07 10:15 24.73083 61.40843 39754 ft 456 kts 274°
2026-05-07 10:16 24.73529 61.33883 39757 ft 456 kts 274°
2026-05-07 10:16 24.73971 61.26924 39759 ft 456 kts 273°
2026-05-07 10:17 24.74410 61.19961 39754 ft 457 kts 273°
2026-05-07 10:17 24.74843 61.13037 39753 ft 457 kts 273°
2026-05-07 10:18 24.75276 61.06069 39757 ft 456 kts 273°
2026-05-07 10:18 24.75705 60.99115 39757 ft 455 kts 273°
2026-05-07 10:19 24.76130 60.92172 39762 ft 455 kts 273°
2026-05-07 10:19 24.76481 60.86400 39759 ft 455 kts 273°
2026-05-07 10:20 24.76899 60.79457 39761 ft 455 kts 273°
2026-05-07 10:20 24.77316 60.72507 39760 ft 455 kts 273°
2026-05-07 10:21 24.77729 60.65543 39759 ft 457 kts 273°
2026-05-07 10:21 24.78140 60.58576 39763 ft 457 kts 273°
2026-05-07 10:22 24.78548 60.51600 39770 ft 457 kts 273°
2026-05-07 10:22 24.78952 60.44630 39758 ft 457 kts 273°
2026-05-07 10:23 24.79355 60.37636 39770 ft 458 kts 273°
2026-05-07 10:23 24.79754 60.30639 39762 ft 458 kts 273°
2026-05-07 10:24 24.80150 60.23634 39766 ft 458 kts 273°
2026-05-07 10:24 24.80531 60.16855 39768 ft 458 kts 272°
2026-05-07 10:25 24.80883 60.10540 39769 ft 458 kts 272°
2026-05-07 10:25 24.81270 60.03532 39768 ft 458 kts 272°
2026-05-07 10:26 24.81653 59.96547 39766 ft 457 kts 272°
2026-05-07 10:26 24.82032 59.89570 39770 ft 457 kts 272°
2026-05-07 10:27 24.82408 59.82590 39773 ft 457 kts 272°
2026-05-07 10:27 24.82781 59.75607 39775 ft 457 kts 272°
2026-05-07 10:28 24.83148 59.68661 39773 ft 457 kts 272°
2026-05-07 10:28 24.83515 59.61673 39775 ft 457 kts 272°
2026-05-07 10:29 24.83878 59.54686 39777 ft 457 kts 272°
2026-05-07 10:29 24.84238 59.47693 39777 ft 458 kts 272°
2026-05-07 10:30 24.84773 59.37202 39780 ft 458 kts 272°
2026-05-07 10:30 24.85125 59.30210 39779 ft 457 kts 272°
2026-05-07 10:31 24.85474 59.23213 39778 ft 458 kts 272°
2026-05-07 10:31 24.85820 59.16207 39778 ft 458 kts 272°
2026-05-07 10:32 24.86162 59.09210 39780 ft 458 kts 272°
2026-05-07 10:32 24.86502 59.02205 39783 ft 458 kts 272°
2026-05-07 10:33 24.86838 58.95208 39777 ft 458 kts 272°
2026-05-07 10:33 24.87171 58.88207 39773 ft 458 kts 272°
2026-05-07 10:34 24.87500 58.81210 39778 ft 458 kts 272°
2026-05-07 10:34 24.87824 58.74257 39780 ft 458 kts 272°
2026-05-07 10:35 24.88147 58.67262 39780 ft 457 kts 272°
2026-05-07 10:35 24.88467 58.60263 39780 ft 457 kts 272°
2026-05-07 10:36 24.88783 58.53266 39779 ft 457 kts 272°
2026-05-07 10:36 24.89096 58.46270 39777 ft 457 kts 272°
2026-05-07 10:37 24.89406 58.39270 39777 ft 458 kts 272°
2026-05-07 10:37 24.89712 58.32271 39779 ft 457 kts 272°
2026-05-07 10:38 24.90015 58.25272 39779 ft 457 kts 272°
2026-05-07 10:38 24.90315 58.18273 39779 ft 457 kts 272°
2026-05-07 10:39 24.90612 58.11275 39782 ft 457 kts 271°
2026-05-07 10:39 24.90905 58.04295 39780 ft 456 kts 271°
2026-05-07 10:40 24.91194 57.97329 39777 ft 455 kts 271°
2026-05-07 10:40 24.91479 57.90360 39777 ft 455 kts 271°
2026-05-07 10:41 24.91761 57.83397 39780 ft 455 kts 271°
2026-05-07 10:41 24.92040 57.76428 39779 ft 455 kts 271°
2026-05-07 10:42 24.92316 57.69462 39777 ft 455 kts 271°
2026-05-07 10:42 24.92587 57.62544 39777 ft 455 kts 271°
2026-05-07 10:43 24.92856 57.55579 39779 ft 455 kts 271°
2026-05-07 10:43 24.93122 57.48610 39779 ft 455 kts 271°
2026-05-07 10:44 24.93385 57.41641 39777 ft 455 kts 271°
2026-05-07 10:44 24.93645 57.34676 39777 ft 455 kts 271°
2026-05-07 10:45 24.93901 57.27717 39777 ft 454 kts 271°
2026-05-07 10:45 24.94153 57.20758 39777 ft 454 kts 271°
2026-05-07 10:46 24.94402 57.13812 39774 ft 453 kts 271°
2026-05-07 10:46 24.94648 57.06877 39774 ft 453 kts 271°
2026-05-07 10:47 24.94890 56.99945 39777 ft 453 kts 271°
2026-05-07 10:47 24.95129 56.93013 39776 ft 453 kts 271°
2026-05-07 10:48 24.95363 56.86122 39774 ft 453 kts 271°
2026-05-07 10:48 24.95597 56.79147 39774 ft 453 kts 271°
2026-05-07 10:49 24.95825 56.72263 39779 ft 452 kts 271°
2026-05-07 10:49 24.96051 56.65333 39779 ft 452 kts 271°
2026-05-07 10:50 24.96274 56.58410 39778 ft 452 kts 270°
2026-05-07 10:50 24.96571 56.53611 39779 ft 453 kts 275°
2026-05-07 10:51 24.97301 56.47031 39780 ft 453 kts 276°
2026-05-07 10:51 24.98132 56.40142 39779 ft 454 kts 276°
2026-05-07 10:52 24.98970 56.33256 39783 ft 453 kts 276°
2026-05-07 10:52 24.99798 56.26373 39779 ft 452 kts 275°
2026-05-07 10:53 25.00617 56.19511 39809 ft 451 kts 275°
2026-05-07 10:53 25.01430 56.12649 39806 ft 451 kts 275°
2026-05-07 10:54 25.02240 56.05787 39816 ft 451 kts 275°
2026-05-07 10:54 25.03046 55.98926 39816 ft 451 kts 275°
2026-05-07 10:55 25.03848 55.92067 39818 ft 451 kts 275°
2026-05-07 10:55 25.04649 55.85204 39821 ft 451 kts 275°
2026-05-07 10:56 25.05441 55.78386 39817 ft 451 kts 275°
2026-05-07 10:56 25.06235 55.71522 39816 ft 452 kts 275°
2026-05-07 10:57 25.07027 55.64649 39811 ft 452 kts 275°
2026-05-07 10:57 25.07815 55.57787 39810 ft 450 kts 275°
2026-05-07 10:58 25.08597 55.50945 39803 ft 449 kts 275°
2026-05-07 10:58 25.09376 55.44099 39804 ft 450 kts 275°
2026-05-07 10:59 25.10151 55.37259 39801 ft 450 kts 275°
2026-05-07 10:59 25.10924 55.30410 39813 ft 450 kts 275°
2026-05-07 11:00 25.11693 55.23560 39816 ft 450 kts 275°
2026-05-07 11:00 25.12459 55.16713 39812 ft 450 kts 275°
2026-05-07 11:01 25.13224 55.09853 39810 ft 450 kts 275°
2026-05-07 11:01 25.13985 55.02994 39809 ft 450 kts 275°
2026-05-07 11:02 25.14657 54.96129 39812 ft 449 kts 270°
2026-05-07 11:02 25.14324 54.89275 39801 ft 447 kts 263°
2026-05-07 11:03 25.13632 54.82461 39798 ft 447 kts 262°
2026-05-07 11:03 25.12880 54.75656 39799 ft 447 kts 262°
2026-05-07 11:04 25.12139 54.68895 39805 ft 447 kts 262°
2026-05-07 11:04 25.11403 54.62086 39804 ft 447 kts 262°
2026-05-07 11:05 25.10672 54.55275 39801 ft 447 kts 262°
2026-05-07 11:05 25.10737 54.48419 39807 ft 450 kts 275°
2026-05-07 11:06 25.11622 54.41576 39806 ft 451 kts 276°
2026-05-07 11:06 25.12642 54.34738 39806 ft 451 kts 277°
2026-05-07 11:07 25.13665 54.27907 39807 ft 451 kts 277°
2026-05-07 11:07 25.14667 54.21071 39810 ft 451 kts 276°
2026-05-07 11:08 25.15660 54.14228 39810 ft 451 kts 276°
2026-05-07 11:08 25.16642 54.07429 39811 ft 451 kts 276°
2026-05-07 11:09 25.17624 54.00605 39812 ft 449 kts 276°
2026-05-07 11:09 25.18601 53.93795 39812 ft 449 kts 276°
2026-05-07 11:10 25.19576 53.86978 39813 ft 450 kts 276°
2026-05-07 11:10 25.20554 53.80161 39811 ft 450 kts 277°
2026-05-07 11:11 25.21925 53.73408 39721 ft 447 kts 281°
2026-05-07 11:11 25.22658 53.70082 39126 ft 446 kts 281°
2026-05-07 11:11 25.23407 53.66736 38327 ft 450 kts 281°
2026-05-07 11:12 25.23909 53.64506 37728 ft 453 kts 281°
2026-05-07 11:12 25.24924 53.59999 36976 ft 453 kts 281°
2026-05-07 11:12 25.25685 53.56612 36823 ft 455 kts 281°
2026-05-07 11:12 25.26190 53.54363 36832 ft 456 kts 281°
2026-05-07 11:13 25.27695 53.47633 36490 ft 438 kts 281°
2026-05-07 11:13 25.28421 53.44402 35543 ft 431 kts 281°
2026-05-07 11:13 25.29138 53.41178 34171 ft 434 kts 281°
2026-05-07 11:14 25.29857 53.37916 32640 ft 439 kts 281°
2026-05-07 11:14 25.30574 53.34667 31879 ft 427 kts 281°
2026-05-07 11:14 25.31265 53.31553 31521 ft 412 kts 281°
2026-05-07 11:14 25.31943 53.28492 31066 ft 409 kts 281°
2026-05-07 11:15 25.32613 53.25452 30601 ft 406 kts 280°
2026-05-07 11:15 25.33277 53.22433 30139 ft 403 kts 280°
2026-05-07 11:15 25.33935 53.19431 29619 ft 400 kts 280°
2026-05-07 11:15 25.34364 53.16421 29149 ft 393 kts 271°
2026-05-07 11:16 25.34344 53.13429 28691 ft 386 kts 262°
2026-05-07 11:16 25.34006 53.10500 28244 ft 382 kts 260°
2026-05-07 11:16 25.33577 53.07601 27790 ft 382 kts 259°
2026-05-07 11:16 25.33099 53.04719 27346 ft 381 kts 258°
2026-05-07 11:17 25.32603 53.01843 26904 ft 381 kts 258°
2026-05-07 11:17 25.32104 52.98975 26450 ft 380 kts 258°
2026-05-07 11:17 25.31611 52.96111 25996 ft 379 kts 258°
2026-05-07 11:17 25.31127 52.93254 25537 ft 378 kts 258°
2026-05-07 11:18 25.30645 52.90400 25076 ft 377 kts 258°
2026-05-07 11:18 25.30165 52.87554 24614 ft 377 kts 258°
2026-05-07 11:18 25.29687 52.84712 24141 ft 376 kts 258°
2026-05-07 11:18 25.29209 52.81875 23677 ft 376 kts 258°
2026-05-07 11:19 25.28731 52.79038 23151 ft 376 kts 258°
2026-05-07 11:19 25.28259 52.76241 22663 ft 374 kts 258°
2026-05-07 11:19 25.27785 52.73430 22169 ft 371 kts 258°
2026-05-07 11:19 25.27355 52.70633 21706 ft 368 kts 262°
2026-05-07 11:20 25.27385 52.67819 21259 ft 367 kts 278°
2026-05-07 11:20 25.27997 52.65091 20790 ft 366 kts 285°
2026-05-07 11:20 25.28760 52.62411 20323 ft 365 kts 286°
2026-05-07 11:20 25.29532 52.59745 19860 ft 364 kts 286°
2026-05-07 11:21 25.30304 52.57089 19397 ft 363 kts 287°
2026-05-07 11:21 25.31322 52.54542 18952 ft 362 kts 296°
2026-05-07 11:21 25.32527 52.52103 18511 ft 362 kts 297°
2026-05-07 11:21 25.33758 52.49679 18062 ft 361 kts 298°
2026-05-07 11:22 25.34981 52.47264 17573 ft 359 kts 297°
2026-05-07 11:22 25.36193 52.44862 17117 ft 357 kts 298°
2026-05-07 11:22 25.37381 52.42504 16712 ft 354 kts 298°
2026-05-07 11:22 25.38573 52.40133 16295 ft 352 kts 298°
2026-05-07 11:23 25.39373 52.38539 16014 ft 350 kts 298°
2026-05-07 11:23 25.40930 52.35433 15458 ft 347 kts 298°
2026-05-07 11:23 25.42095 52.33106 15043 ft 345 kts 298°
2026-05-07 11:23 25.43252 52.30797 14643 ft 343 kts 298°
2026-05-07 11:24 25.44408 52.28492 14244 ft 342 kts 298°
2026-05-07 11:24 25.45553 52.26202 13853 ft 339 kts 298°
2026-05-07 11:24 25.46687 52.23930 13425 ft 337 kts 299°
2026-05-07 11:24 25.47818 52.21664 13031 ft 336 kts 299°
2026-05-07 11:25 25.48941 52.19415 12636 ft 333 kts 299°
2026-05-07 11:25 25.50054 52.17184 12261 ft 330 kts 299°
2026-05-07 11:25 25.51160 52.14966 11876 ft 328 kts 300°
2026-05-07 11:25 25.52260 52.12761 11565 ft 327 kts 300°
2026-05-07 11:26 25.53358 52.10560 11266 ft 325 kts 300°
2026-05-07 11:26 25.54446 52.08383 10911 ft 323 kts 300°
2026-05-07 11:26 25.55527 52.06213 10543 ft 321 kts 300°
2026-05-07 11:26 25.56575 52.04104 10323 ft 311 kts 300°
2026-05-07 11:27 25.57594 52.02053 10227 ft 297 kts 300°
2026-05-07 11:27 25.58579 52.00069 10110 ft 284 kts 300°
2026-05-07 11:27 25.59511 51.98194 9883 ft 281 kts 300°
2026-05-07 11:27 25.60498 51.96212 9663 ft 297 kts 300°
2026-05-07 11:28 25.61335 51.94105 9457 ft 300 kts 287°
2026-05-07 11:28 25.61476 51.91843 9009 ft 300 kts 265°
2026-05-07 11:28 25.61158 51.89561 8643 ft 300 kts 258°
2026-05-07 11:28 25.60652 51.87325 8334 ft 299 kts 255°
2026-05-07 11:29 25.60072 51.85115 8029 ft 298 kts 254°
2026-05-07 11:29 25.59483 51.82922 7730 ft 296 kts 254°
2026-05-07 11:29 25.58912 51.80738 7429 ft 295 kts 255°
2026-05-07 11:29 25.58365 51.78552 7132 ft 294 kts 255°
2026-05-07 11:30 25.57837 51.76366 6826 ft 293 kts 255°
2026-05-07 11:30 25.57324 51.74184 6534 ft 292 kts 256°
2026-05-07 11:30 25.56819 51.72012 6235 ft 291 kts 256°
2026-05-07 11:30 25.56319 51.69846 5912 ft 290 kts 256°
2026-05-07 11:31 25.55821 51.67691 5617 ft 289 kts 255°
2026-05-07 11:31 25.55324 51.65544 5313 ft 288 kts 255°
2026-05-07 11:31 25.54827 51.63404 5021 ft 286 kts 255°
2026-05-07 11:31 25.54331 51.61272 4724 ft 285 kts 255°
2026-05-07 11:32 25.53342 51.57035 4097 ft 283 kts 255°
2026-05-07 11:32 25.52793 51.54975 3943 ft 271 kts 245°
2026-05-07 11:32 25.51761 51.53329 3846 ft 254 kts 216°
2026-05-07 11:33 25.50223 51.52594 3738 ft 234 kts 186°
2026-05-07 11:33 25.48652 51.52570 3624 ft 219 kts 169°
2026-05-07 11:33 25.47241 51.53035 3543 ft 205 kts 154°
2026-05-07 11:33 25.45962 51.53647 3356 ft 197 kts 155°
2026-05-07 11:34 25.44702 51.54209 3063 ft 193 kts 157°
2026-05-07 11:34 25.43481 51.54744 2758 ft 183 kts 157°
2026-05-07 11:34 25.42336 51.55252 2528 ft 171 kts 157°
2026-05-07 11:34 25.41258 51.55730 2322 ft 166 kts 158°
2026-05-07 11:35 25.40186 51.56205 2110 ft 166 kts 158°
2026-05-07 11:35 25.39111 51.56681 1913 ft 166 kts 159°
2026-05-07 11:35 25.38067 51.57144 1692 ft 157 kts 159°
2026-05-07 11:35 25.37079 51.57582 1521 ft 149 kts 159°
2026-05-07 11:36 25.36123 51.58005 1331 ft 147 kts 160°
2026-05-07 11:36 25.35173 51.58425 1141 ft 147 kts 160°
2026-05-07 11:36 25.34225 51.58844 954 ft 147 kts 159°
2026-05-07 11:36 25.33280 51.59262 778 ft 146 kts 159°
2026-05-07 11:37 25.32333 51.59682 618 ft 146 kts 158°
2026-05-07 11:37 25.31389 51.60100 406 ft 146 kts 157°
2026-05-07 11:37 25.30473 51.60520 245 ft 143 kts 156°
2026-05-07 11:37 25.29567 51.60921 67 ft 139 kts 158°
2026-05-07 11:38 25.28701 51.61303 30 ft 122 kts 158°
2026-05-07 11:38 25.28013 51.61609 28 ft 92 kts 158°
2026-05-07 11:38 25.27494 51.61835 29 ft 69 kts 158°
2026-05-07 11:38 25.27096 51.62008 26 ft 57 kts 158°
2026-05-07 11:39 25.26780 51.62067 26 ft 30 kts 187°
2026-05-07 11:39 25.26586 51.62025 28 ft 26 kts 221°
2026-05-07 11:39 25.26517 51.61867 28 ft 23 kts 249°
2026-05-07 11:39 25.26461 51.61713 28 ft 12 kts 248°
2026-05-07 11:40 25.26424 51.61612 28 ft 16 kts 248°
2026-05-07 11:40 25.26392 51.61490 28 ft 14 kts 284°
2026-05-07 11:40 25.26459 51.61438 28 ft 14 kts 336°
2026-05-07 11:40 25.26563 51.61392 28 ft 18 kts 339°
2026-05-07 11:41 25.26629 51.61331 28 ft 8 kts 262°
2026-05-07 11:41 25.26619 51.61298 28 ft 2 kts 250°
2026-05-07 11:41 25.26612 51.61277 28 ft 1 kts 248°
2026-05-07 11:41 25.26606 51.61260 28 ft 2 kts 248°
2026-05-07 11:42 25.26605 51.61257 28 ft 0 kts 248°